Time,TemperatureF,DewpointF,PressureIn,WindDirection,WindDirectionDegrees,WindSpeedMPH,WindSpeedGustMPH,Humidity,HourlyPrecipIn,Conditions,Clouds,dailyrainin,SoftwareType,DateUTC
2013-04-10 00:02:00,73.0,68.0,30.06,ENE,74,9.0,10.0,85,0.00,,,0.00,,2013-04-10 10:02:00,
2013-04-10 00:12:00,72.0,68.0,30.06,East,95,8.0,13.0,86,0.00,,,0.00,,2013-04-10 10:12:00,
2013-04-10 00:23:00,72.0,68.0,30.06,East,95,8.0,13.0,86,0.00,,,0.00,,2013-04-10 10:23:00,
2013-04-10 00:33:00,72.0,68.0,30.06,ENE,78,4.0,11.0,86,0.00,,,0.00,,2013-04-10 10:33:00,
2013-04-10 00:42:00,72.0,68.0,30.06,ENE,78,4.0,11.0,86,0.00,,,0.00,,2013-04-10 10:42:00,
2013-04-10 00:52:00,72.0,68.0,30.05,ENE,77,3.0,15.0,86,0.00,,,0.00,,2013-04-10 10:52:00,
2013-04-10 01:02:00,72.0,68.0,30.05,ENE,78,8.0,8.0,87,0.00,,,0.00,,2013-04-10 11:02:00,
2013-04-10 01:12:00,72.0,68.0,30.05,ENE,78,8.0,8.0,87,0.00,,,0.00,,2013-04-10 11:12:00,
2013-04-10 01:22:00,72.0,68.0,30.05,East,84,8.0,13.0,87,0.00,,,0.00,,2013-04-10 11:22:00,
2013-04-10 01:31:00,72.0,68.0,30.04,East,96,3.0,13.0,87,0.00,,,0.00,,2013-04-10 11:31:00,
2013-04-10 01:42:00,72.0,68.0,30.04,East,96,3.0,13.0,87,0.00,,,0.00,,2013-04-10 11:42:00,
2013-04-10 01:52:00,72.0,68.0,30.04,East,88,3.0,17.0,87,0.00,,,0.00,,2013-04-10 11:52:00,
2013-04-10 02:02:00,72.0,68.0,30.04,ENE,78,7.0,13.0,87,0.00,,,0.00,,2013-04-10 12:02:00,
2013-04-10 02:12:00,72.0,68.0,30.04,ENE,78,7.0,13.0,87,0.00,,,0.00,,2013-04-10 12:12:00,
2013-04-10 02:22:00,72.0,68.0,30.03,East,90,8.0,12.0,87,0.00,,,0.00,,2013-04-10 12:22:00,
2013-04-10 02:32:00,72.0,68.0,30.03,ENE,76,3.0,13.0,88,0.00,,,0.00,,2013-04-10 12:32:00,
2013-04-10 02:42:00,72.0,68.0,30.03,ENE,76,3.0,13.0,88,0.00,,,0.00,,2013-04-10 12:42:00,
2013-04-10 02:52:00,71.0,67.0,30.03,East,79,7.0,10.0,88,0.00,,,0.00,,2013-04-10 12:52:00,
2013-04-10 03:02:00,71.0,67.0,30.02,ENE,72,9.0,11.0,88,0.00,,,0.00,,2013-04-10 13:02:00,
2013-04-10 03:11:00,71.0,67.0,30.02,ENE,72,9.0,11.0,88,0.00,,,0.00,,2013-04-10 13:11:00,
2013-04-10 03:22:00,71.0,67.0,30.02,East,98,0.0,13.0,88,0.00,,,0.00,,2013-04-10 13:22:00,
2013-04-10 03:32:00,71.0,67.0,30.02,ENE,61,3.0,10.0,88,0.00,,,0.00,,2013-04-10 13:32:00,
2013-04-10 03:41:00,71.0,67.0,30.02,ENE,61,3.0,10.0,88,0.00,,,0.00,,2013-04-10 13:41:00,
2013-04-10 03:53:00,71.0,67.0,30.02,East,94,3.0,11.0,88,0.00,,,0.00,,2013-04-10 13:53:00,
2013-04-10 04:01:00,72.0,68.0,30.02,ENE,78,3.0,9.0,88,0.00,,,0.00,,2013-04-10 14:01:00,
2013-04-10 04:11:00,71.0,67.0,30.02,ENE,78,0.0,5.0,88,0.00,,,0.00,,2013-04-10 14:11:00,
2013-04-10 04:22:00,71.0,67.0,30.02,ENE,78,0.0,5.0,88,0.00,,,0.00,,2013-04-10 14:22:00,
2013-04-10 04:32:00,71.0,67.0,30.01,ENE,70,0.0,5.0,88,0.00,,,0.00,,2013-04-10 14:32:00,
2013-04-10 04:41:00,71.0,67.0,30.01,ENE,72,1.0,5.0,88,0.00,,,0.00,,2013-04-10 14:41:00,
2013-04-10 04:52:00,71.0,67.0,30.01,ENE,72,1.0,5.0,88,0.00,,,0.00,,2013-04-10 14:52:00,
2013-04-10 05:02:00,70.0,67.0,30.01,East,82,3.0,10.0,89,0.00,,,0.00,,2013-04-10 15:02:00,
2013-04-10 05:11:00,70.0,67.0,30.01,East,82,3.0,10.0,89,0.00,,,0.00,,2013-04-10 15:11:00,
2013-04-10 05:21:00,71.0,68.0,30.02,East,83,5.0,8.0,89,0.00,,,0.00,,2013-04-10 15:21:00,
2013-04-10 05:32:00,71.0,68.0,30.02,ESE,104,4.0,8.0,89,0.00,,,0.00,,2013-04-10 15:32:00,
2013-04-10 05:42:00,71.0,68.0,30.02,ESE,104,4.0,8.0,89,0.00,,,0.00,,2013-04-10 15:42:00,
2013-04-10 05:52:00,71.0,68.0,30.02,East,82,2.0,9.0,89,0.00,,,0.00,,2013-04-10 15:52:00,
2013-04-10 06:02:00,70.0,67.0,30.03,East,84,3.0,8.0,89,0.00,,,0.00,,2013-04-10 16:02:00,
2013-04-10 06:12:00,70.0,67.0,30.03,East,84,3.0,8.0,89,0.00,,,0.00,,2013-04-10 16:12:00,
2013-04-10 06:22:00,71.0,68.0,30.03,East,82,0.0,7.0,89,0.00,,,0.00,,2013-04-10 16:22:00,
2013-04-10 06:32:00,70.0,67.0,30.03,East,101,3.0,9.0,90,0.00,,,0.00,,2013-04-10 16:32:00,
2013-04-10 06:42:00,70.0,67.0,30.03,East,101,3.0,9.0,90,0.00,,,0.00,,2013-04-10 16:42:00,
2013-04-10 06:52:00,70.0,67.0,30.03,East,89,6.0,10.0,90,0.00,,,0.00,,2013-04-10 16:52:00,
2013-04-10 07:02:00,70.0,67.0,30.03,ENE,71,3.0,7.0,90,0.00,,,0.00,,2013-04-10 17:02:00,
2013-04-10 07:11:00,70.0,67.0,30.03,SSE,147,1.0,8.0,90,0.00,,,0.00,,2013-04-10 17:11:00,
2013-04-10 07:22:00,70.0,67.0,30.03,SSE,147,1.0,8.0,90,0.00,,,0.00,,2013-04-10 17:22:00,
2013-04-10 07:32:00,71.0,68.0,30.04,ENE,69,2.0,8.0,90,0.00,,,0.00,,2013-04-10 17:32:00,
2013-04-10 07:42:00,71.0,68.0,30.04,ENE,69,2.0,8.0,90,0.00,,,0.00,,2013-04-10 17:42:00,
2013-04-10 07:52:00,71.0,68.0,30.04,East,84,6.0,7.0,90,0.00,,,0.00,,2013-04-10 17:52:00,
2013-04-10 08:02:00,72.0,69.0,30.04,East,92,1.0,9.0,90,0.00,,,0.00,,2013-04-10 18:02:00,
2013-04-10 08:11:00,72.0,69.0,30.04,East,92,1.0,9.0,90,0.00,,,0.00,,2013-04-10 18:11:00,
2013-04-10 08:22:00,73.0,70.0,30.05,East,96,2.0,14.0,89,0.00,,,0.00,,2013-04-10 18:22:00,
2013-04-10 08:32:00,73.0,69.0,30.05,East,81,2.0,10.0,88,0.00,,,0.00,,2013-04-10 18:32:00,
2013-04-10 08:42:00,73.0,69.0,30.05,East,81,2.0,10.0,88,0.00,,,0.00,,2013-04-10 18:42:00,
2013-04-10 08:52:00,74.0,70.0,30.05,ENE,65,1.0,8.0,86,0.00,,,0.00,,2013-04-10 18:52:00,
2013-04-10 09:12:00,75.0,70.0,30.06,East,99,7.0,13.0,84,0.00,,,0.00,,2013-04-10 19:12:00,
2013-04-10 09:22:00,75.0,70.0,30.06,East,99,7.0,13.0,84,0.00,,,0.00,,2013-04-10 19:22:00,
2013-04-10 09:32:00,76.0,70.0,30.06,East,90,7.0,13.0,82,0.00,,,0.00,,2013-04-10 19:32:00,
2013-04-10 09:41:00,75.0,69.0,30.06,ENE,72,10.0,13.0,82,0.00,,,0.00,,2013-04-10 19:41:00,
2013-04-10 09:52:00,75.0,69.0,30.06,ENE,72,10.0,13.0,82,0.00,,,0.00,,2013-04-10 19:52:00,
2013-04-10 10:02:00,76.0,70.0,30.05,East,95,7.0,18.0,82,0.00,,,0.00,,2013-04-10 20:02:00,
2013-04-10 10:11:00,77.0,70.0,30.05,ENE,72,4.0,15.0,79,0.00,,,0.00,,2013-04-10 20:11:00,
2013-04-10 10:22:00,77.0,70.0,30.05,ENE,72,4.0,15.0,79,0.00,,,0.00,,2013-04-10 20:22:00,
2013-04-10 10:32:00,78.0,70.0,30.05,ENE,75,7.0,18.0,77,0.00,,,0.00,,2013-04-10 20:32:00,
2013-04-10 10:42:00,77.0,70.0,30.06,East,93,6.0,15.0,78,0.00,,,0.00,,2013-04-10 20:42:00,
2013-04-10 10:52:00,77.0,70.0,30.06,East,93,6.0,15.0,78,0.00,,,0.00,,2013-04-10 20:52:00,
2013-04-10 11:02:00,77.0,70.0,30.06,ESE,117,4.0,18.0,79,0.00,,,0.00,,2013-04-10 21:02:00,
2013-04-10 11:11:00,77.0,70.0,30.05,East,94,3.0,11.0,78,0.00,,,0.00,,2013-04-10 21:11:00,
2013-04-10 11:21:00,77.0,70.0,30.05,East,94,3.0,11.0,78,0.00,,,0.00,,2013-04-10 21:21:00,
2013-04-10 11:32:00,78.0,70.0,30.05,East,90,8.0,15.0,77,0.00,,,0.00,,2013-04-10 21:32:00,
2013-04-10 11:42:00,78.0,70.0,30.05,East,90,8.0,15.0,77,0.00,,,0.00,,2013-04-10 21:42:00,
2013-04-10 11:53:00,77.0,70.0,30.05,NE,56,7.0,18.0,78,0.00,,,0.00,,2013-04-10 21:53:00,
2013-04-10 12:02:00,77.0,69.0,30.04,ENE,71,15.0,17.0,77,0.00,,,0.00,,2013-04-10 22:02:00,
2013-04-10 12:12:00,78.0,70.0,30.04,East,92,10.0,16.0,76,0.00,,,0.00,,2013-04-10 22:12:00,
2013-04-10 12:22:00,78.0,70.0,30.04,East,92,10.0,16.0,76,0.00,,,0.00,,2013-04-10 22:22:00,
2013-04-10 12:32:00,77.0,69.0,30.03,East,83,13.0,21.0,77,0.00,,,0.00,,2013-04-10 22:32:00,
2013-04-10 12:42:00,77.0,69.0,30.03,East,83,13.0,21.0,77,0.00,,,0.00,,2013-04-10 22:42:00,
2013-04-10 12:52:00,77.0,69.0,30.03,East,84,11.0,24.0,76,0.00,,,0.00,,2013-04-10 22:52:00,
2013-04-10 13:02:00,78.0,69.0,30.02,ENE,77,10.0,20.0,75,0.00,,,0.00,,2013-04-10 23:02:00,
2013-04-10 13:22:00,78.0,69.0,30.02,ENE,69,11.0,18.0,74,0.00,,,0.00,,2013-04-10 23:22:00,
2013-04-10 13:32:00,80.0,70.0,30.01,ENE,76,9.0,14.0,72,0.00,,,0.00,,2013-04-10 23:32:00,
2013-04-10 13:42:00,80.0,70.0,30.01,ENE,76,9.0,14.0,72,0.00,,,0.00,,2013-04-10 23:42:00,
2013-04-10 13:52:00,80.0,70.0,30.01,NE,51,12.0,17.0,71,0.00,,,0.00,,2013-04-10 23:52:00,
2013-04-10 14:02:00,84.0,70.0,30.00,ENE,67,5.0,15.0,64,0.00,,,0.00,,2013-04-11 00:02:00,
2013-04-10 14:11:00,82.0,69.0,30.00,East,97,16.0,16.0,65,0.00,,,0.00,,2013-04-11 00:11:00,
2013-04-10 14:22:00,82.0,69.0,30.00,East,97,16.0,16.0,65,0.00,,,0.00,,2013-04-11 00:22:00,
2013-04-10 14:31:00,82.0,69.0,29.99,SE,134,3.0,16.0,66,0.00,,,0.00,,2013-04-11 00:31:00,
2013-04-10 14:42:00,82.0,70.0,29.99,ESE,109,14.0,17.0,67,0.00,,,0.00,,2013-04-11 00:42:00,
2013-04-10 14:52:00,82.0,70.0,29.99,ESE,109,14.0,17.0,67,0.00,,,0.00,,2013-04-11 00:52:00,
2013-04-10 15:01:00,82.0,70.0,29.99,NE,41,7.0,17.0,68,0.00,,,0.00,,2013-04-11 01:01:00,
2013-04-10 15:11:00,81.0,69.0,29.99,East,95,8.0,13.0,68,0.00,,,0.00,,2013-04-11 01:11:00,
2013-04-10 15:21:00,81.0,69.0,29.99,East,95,8.0,13.0,68,0.00,,,0.00,,2013-04-11 01:21:00,
2013-04-10 15:31:00,82.0,70.0,29.99,NE,37,4.0,14.0,68,0.00,,,0.00,,2013-04-11 01:31:00,
2013-04-10 15:41:00,81.0,70.0,29.98,East,100,10.0,17.0,69,0.00,,,0.00,,2013-04-11 01:41:00,
2013-04-10 15:52:00,81.0,70.0,29.98,East,100,10.0,17.0,69,0.00,,,0.00,,2013-04-11 01:52:00,
2013-04-10 16:01:00,82.0,71.0,29.98,NE,53,3.0,16.0,69,0.00,,,0.00,,2013-04-11 02:01:00,
2013-04-10 16:12:00,80.0,70.0,29.98,ENE,76,7.0,19.0,71,0.00,,,0.00,,2013-04-11 02:12:00,
2013-04-10 16:21:00,80.0,70.0,29.98,ENE,76,7.0,19.0,71,0.00,,,0.00,,2013-04-11 02:21:00,
2013-04-10 16:31:00,80.0,69.0,29.98,ESE,106,2.0,21.0,70,0.00,,,0.00,,2013-04-11 02:31:00,
2013-04-10 16:41:00,80.0,69.0,29.98,ESE,106,2.0,21.0,70,0.00,,,0.00,,2013-04-11 02:41:00,
2013-04-10 16:52:00,80.0,70.0,29.98,ENE,57,4.0,13.0,71,0.00,,,0.00,,2013-04-11 02:52:00,
2013-04-10 17:01:00,79.0,68.0,29.97,East,79,5.0,21.0,70,0.00,,,0.00,,2013-04-11 03:01:00,
2013-04-10 17:11:00,79.0,69.0,29.97,ENE,59,9.0,23.0,71,0.00,,,0.00,,2013-04-11 03:11:00,
2013-04-10 17:22:00,79.0,69.0,29.97,ENE,59,9.0,23.0,71,0.00,,,0.00,,2013-04-11 03:22:00,
2013-04-10 17:32:00,78.0,69.0,29.98,NE,44,7.0,21.0,73,0.00,,,0.00,,2013-04-11 03:32:00,
2013-04-10 17:42:00,77.0,68.0,29.98,ENE,63,11.0,18.0,75,0.00,,,0.00,,2013-04-11 03:42:00,
2013-04-10 17:53:00,77.0,68.0,29.98,ENE,63,11.0,18.0,75,0.00,,,0.00,,2013-04-11 03:53:00,
2013-04-10 18:03:00,76.0,68.0,29.98,ENE,66,10.0,17.0,77,0.00,,,0.00,,2013-04-11 04:03:00,
2013-04-10 18:12:00,75.0,67.0,29.98,ENE,77,15.0,21.0,77,0.00,,,0.00,,2013-04-11 04:12:00,
2013-04-10 18:22:00,75.0,67.0,29.98,ENE,77,15.0,21.0,77,0.00,,,0.00,,2013-04-11 04:22:00,
2013-04-10 18:33:00,75.0,68.0,29.99,East,100,13.0,19.0,78,0.00,,,0.00,,2013-04-11 04:33:00,
2013-04-10 18:42:00,75.0,68.0,29.99,East,100,13.0,19.0,78,0.00,,,0.00,,2013-04-11 04:42:00,
2013-04-10 18:52:00,75.0,68.0,30.00,ESE,102,9.0,15.0,78,0.00,,,0.00,,2013-04-11 04:52:00,
2013-04-10 19:02:00,75.0,68.0,30.00,ENE,71,10.0,14.0,78,0.00,,,0.00,,2013-04-11 05:02:00,
2013-04-10 19:12:00,74.0,67.0,30.01,ENE,66,9.0,17.0,79,0.00,,,0.00,,2013-04-11 05:12:00,
2013-04-10 19:22:00,74.0,67.0,30.01,ENE,66,9.0,17.0,79,0.00,,,0.00,,2013-04-11 05:22:00,
2013-04-10 19:32:00,74.0,67.0,30.01,ENE,57,3.0,16.0,79,0.00,,,0.00,,2013-04-11 05:32:00,
2013-04-10 19:42:00,74.0,67.0,30.01,ENE,57,3.0,16.0,79,0.00,,,0.00,,2013-04-11 05:42:00,
2013-04-10 19:52:00,74.0,67.0,30.02,ENE,70,0.0,18.0,80,0.00,,,0.00,,2013-04-11 05:52:00,
2013-04-10 20:02:00,74.0,68.0,30.02,ENE,63,11.0,17.0,81,0.00,,,0.00,,2013-04-11 06:02:00,
2013-04-10 20:12:00,74.0,68.0,30.02,ENE,63,11.0,17.0,81,0.00,,,0.00,,2013-04-11 06:12:00,
2013-04-10 20:21:00,74.0,68.0,30.02,NE,43,7.0,18.0,81,0.00,,,0.00,,2013-04-11 06:21:00,
2013-04-10 20:32:00,74.0,68.0,30.02,ENE,58,10.0,19.0,82,0.00,,,0.00,,2013-04-11 06:32:00,
2013-04-10 20:41:00,74.0,68.0,30.02,ENE,58,10.0,19.0,82,0.00,,,0.00,,2013-04-11 06:41:00,
2013-04-10 20:52:00,73.0,67.0,30.03,ENE,77,9.0,15.0,82,0.00,,,0.00,,2013-04-11 06:52:00,
2013-04-10 21:01:00,73.0,67.0,30.03,East,96,15.0,22.0,82,0.00,,,0.00,,2013-04-11 07:01:00,
2013-04-10 21:11:00,73.0,67.0,30.03,East,96,15.0,22.0,82,0.00,,,0.00,,2013-04-11 07:11:00,
2013-04-10 21:21:00,73.0,68.0,30.04,East,94,15.0,19.0,83,0.00,,,0.00,,2013-04-11 07:21:00,
2013-04-10 21:31:00,73.0,68.0,30.04,ENE,59,5.0,23.0,83,0.00,,,0.00,,2013-04-11 07:31:00,
2013-04-10 21:42:00,73.0,68.0,30.04,ENE,59,5.0,23.0,83,0.00,,,0.00,,2013-04-11 07:42:00,
2013-04-10 21:52:00,73.0,68.0,30.04,ENE,77,8.0,17.0,83,0.00,,,0.00,,2013-04-11 07:52:00,
2013-04-10 22:02:00,73.0,68.0,30.04,NE,53,10.0,19.0,83,0.00,,,0.00,,2013-04-11 08:02:00,
2013-04-10 22:11:00,73.0,68.0,30.04,NE,53,10.0,19.0,83,0.00,,,0.00,,2013-04-11 08:11:00,
2013-04-10 22:21:00,73.0,68.0,30.05,NE,52,7.0,18.0,84,0.00,,,0.00,,2013-04-11 08:21:00,
2013-04-10 22:31:00,73.0,68.0,30.05,East,84,10.0,20.0,84,0.00,,,0.00,,2013-04-11 08:31:00,
2013-04-10 22:41:00,73.0,68.0,30.05,East,84,10.0,20.0,84,0.00,,,0.00,,2013-04-11 08:41:00,
2013-04-10 22:52:00,73.0,68.0,30.05,East,83,9.0,16.0,84,0.00,,,0.00,,2013-04-11 08:52:00,
2013-04-10 23:01:00,73.0,68.0,30.05,ENE,74,11.0,17.0,84,0.00,,,0.00,,2013-04-11 09:01:00,
2013-04-10 23:11:00,73.0,68.0,30.05,ENE,74,5.0,17.0,85,0.00,,,0.00,,2013-04-11 09:11:00,
2013-04-10 23:22:00,73.0,68.0,30.05,ENE,74,5.0,17.0,85,0.00,,,0.00,,2013-04-11 09:22:00,
2013-04-10 23:32:00,73.0,68.0,30.05,East,96,7.0,10.0,85,0.00,,,0.00,,2013-04-11 09:32:00,
2013-04-10 23:42:00,73.0,68.0,30.05,East,96,7.0,10.0,85,0.00,,,0.00,,2013-04-11 09:42:00,
2013-04-10 23:52:00,73.0,68.0,30.04,East,94,3.0,11.0,85,0.00,,,0.00,,2013-04-11 09:52:00,